Location: Caltech
(34.1382°N, 118.1253°W)
Time: 15:17:40
(UTC-07:00)

Gurwin Techsat 1B - Visible Passes

Search period start: 24 June 2016 00:00
Search period end: 04 July 2016 00:00
Orbit: 812 x 814 km, 98.6° (Epoch: 23 June)

Date Brightness Start Highest point End Pass type
(mag) Time Alt. Az. Time Alt. Az. Time Alt. Az.
24 Jun 8.9 02:43:03 10° NNE 02:48:18 57° E 02:48:59 53° SE visible
24 Jun 10.5 04:24:39 10° NNW 04:27:43 16° WNW 04:30:12 12° W visible
25 Jun 9.7 02:20:39 10° NNE 02:25:27 33° E 02:25:54 33° ESE visible
25 Jun 9.9 04:00:53 10° NNW 04:05:11 26° WNW 04:07:07 21° W visible
26 Jun 10.4 01:58:41 10° NE 02:02:32 20° E 02:02:49 20° E visible
26 Jun 9.2 03:37:36 10° N 03:42:34 42° WNW 03:44:02 34° WSW visible
27 Jun 11.0 01:37:54 10° ENE 01:39:32 11° E 01:39:44 11° E visible
27 Jun 8.6 03:14:35 10° N 03:19:54 70° WNW 03:20:57 55° SW visible
28 Jun 8.6 02:51:49 10° NNE 02:57:09 70° ESE 02:57:52 62° SSE visible
28 Jun 10.6 04:34:11 10° NW 04:36:25 13° WNW 04:38:41 10° W visible
29 Jun 9.4 02:29:18 10° NNE 02:34:20 41° E 02:34:47 40° ESE visible
29 Jun 10.1 04:10:02 10° NNW 04:13:56 21° WNW 04:15:59 17° W visible
30 Jun 10.2 02:07:07 10° NE 02:11:25 25° E 02:11:41 25° E visible
30 Jun 9.5 03:46:36 10° N 03:51:21 34° WNW 03:52:54 29° WSW visible
01 Jul 10.8 01:45:38 10° ENE 01:48:28 14° E 01:48:36 14° E visible
01 Jul 8.8 03:23:30 10° N 03:28:42 57° WNW 03:29:48 47° WSW visible
02 Jul 8.5 03:00:38 10° NNE 03:05:59 86° ESE 03:06:43 68° S visible
02 Jul 10.8 04:44:34 10° NW 04:45:08 10° WNW 04:45:42 10° WNW visible
03 Jul 9.1 02:38:00 10° NNE 02:43:11 51° E 02:43:37 50° ESE visible
03 Jul 10.3 04:19:17 10° NNW 04:22:40 17° WNW 04:24:50 14° W visible
